Overview Statistics Trail Chart Weather Telemetry Raw packets
 

This is the latest recevied weather packets stored in our database for station/object W0CHP-13. If no packets are shown the sender has not sent any weather packets the latest 10 day(s).

<< 8 9 10 11 12 13 14 >>
Time Temp. Humidity Pressure Rain* Wind** Luminosity Snow
1788555557 34.44° C 60% 1009.9 hPa 0 mm - 468 W/m² -
1788554957 34.44° C 58% 1009.9 hPa 0 mm - 486 W/m² -
1788554356 34.44° C 59% 1010.3 hPa 0 mm - 509 W/m² -
1788553758 34.44° C 58% 1009.9 hPa 0 mm - 532 W/m² -
1788553157 34.44° C 57% 1009.9 hPa 0 mm - 552 W/m² -
1788552555 34.44° C 58% 1009.9 hPa 0 mm - 566 W/m² -
1788551956 34.44° C 58% 1009.9 hPa 0 mm - 588 W/m² -
1788551355 34.44° C 59% 1009.9 hPa 0 mm - 616 W/m² -
1788550758 34.44° C 57% 1009.9 hPa 0 mm - 622 W/m² -
1788550156 34.44° C 59% 1009.9 hPa 0 mm - 633 W/m² -
1788549558 33.89° C 61% 1009.9 hPa 0 mm - 646 W/m² -
1788548955 33.89° C 60% 1009.9 hPa 0 mm - 661 W/m² -
1788548357 33.33° C 62% 1009.9 hPa 0 mm - 669 W/m² -
1788547756 32.78° C 65% 1010.3 hPa 0 mm - 675 W/m² -
1788547157 32.78° C 65% 1009.9 hPa 0 mm - 680 W/m² -
1788546558 32.78° C 65% 1009.9 hPa 0 mm - 686 W/m² -
1788545956 32.22° C 68% 1009.9 hPa 0 mm - 692 W/m² -
1788545655 31.67° C 68% 1009.9 hPa 0 mm - 697 W/m² -
1788545058 31.67° C 69% 1010.3 hPa 0 mm - 697 W/m² -
1788544695 31.67° C 65% 1010.3 hPa 0 mm - 711 W/m² -
1788544097 31.11° C 67% 1010.3 hPa 0 mm - 746 W/m² -
1788544036 31.11° C 67% 1010.6 hPa 0 mm - 783 W/m² -
1788543798 31.11° C 68% 1010.3 hPa 0 mm - 594 W/m² -
1788543316 31.11° C 68% 1010.6 hPa 0 mm - 337 W/m² -
1788542717 30.56° C 73% 1010.2 hPa 0 mm - 668 W/m² -

* Rain latest hour (hover to see other rain measurements)
** Current wind speed in m/s (hover to see current wind gust speed)